[[{"header":{"parameterUnit":"m.s-1","parameterCategory":2,"la1":30.2992,"la2":30.254,"lo1":-89.0895,"lo2":-89.0443,"dy":0.0025,"dx":0.0025,"nx":19,"ny":19,"refTime":"2026-04-23T21:00:00:Z","depth":"0","parameterNumber":2,"parameterNumberName":"U-component_of_CURRENTS"},"data":[0,0,0,0.2085,0.2085,0.2126,0.2127,0.2192,0.2192,0,0,0,0,0,0,0,0,0,0,0,0.2075,0.2075,0.2085,0.2085,0.2126,0.2127,0.2192,0.2192,0,0,0,0,0,0,0,0,0,0,0,0.2075,0.2075,0.2075,0.2086,0.2126,0.2127,0.2192,0.2162,0,0,0,0,0,0,0,0,0,0,0.2123,0.2088,0.2075,0.2075,0.2086,0.2126,0.2127,0.2161,0.2164,0.2171,0,0.2166,0,0.217,0.2195,0.2195,0,0,0,0.2105,0.2085,0.2108,0.2074,0.2086,0.2126,0.2114,0.2163,0.2166,0.2175,0.2166,0.2169,0.2171,0.2195,0.2195,0.2162,0.2161,0,0,0.2103,0.2075,0.2105,0.211,0.2082,0.2112,0.2114,0.2165,0.2155,0.2167,0.217,0.2172,0.2195,0.2196,0.2163,0.2162,0,0,0,0.2083,0.2073,0.2095,0.2107,0.2108,0.2113,0.2116,0.2153,0.2163,0.2171,0.2173,0.2196,0.2196,0.2163,0.2162,0.2095,0,0,0,0.2083,0.2061,0.2093,0.2076,0.2106,0.2124,0.2102,0.216,0.2166,0.2172,0.2196,0.2197,0.2164,0.2163,0.2099,0.2096,0,0,0,0.2075,0.2059,0.2063,0.2075,0.2085,0.2124,0.2137,0.2162,0.2166,0.2195,0.2197,0.2165,0.2163,0.2102,0.21,0.2093,0,0,0,0.205,0.2045,0.2061,0.204,0.2084,0.2078,0.2137,0.2132,0.2147,0.2196,0.2164,0.2162,0.2103,0.2103,0.2095,0.2135,0.2128,0,0,0.2035,0.2042,0.2028,0.2044,0.202,0.2075,0.2044,0.2089,0.2128,0.2154,0.2153,0.2098,0.2101,0.2094,0.2041,0.2037,0,0,0,0.2017,0.2016,0.2003,0.1993,0.1992,0.1993,0.2029,0.2042,0.2063,0.2126,0.2083,0.2088,0.2086,0.2113,0.2109,0.2026,0.2155,0.2155,0.2155,0.2008,0.1998,0.1969,0.1956,0.1943,0.1938,0.1941,0.1971,0.2001,0.1988,0.2021,0.1957,0.1982,0.1981,0.1893,0.1994,0.1993,0.1993,0.1993,0.2002,0.1983,0.1961,0.1938,0.1916,0.1901,0.1892,0.1901,0.1907,0.1938,0.1939,0.2026,0.1973,0.1881,0.1988,0.1989,0.199,0.199,0.1991,0.2005,0.1989,0.198,0.1949,0.1916,0.189,0.1869,0.1866,0.1877,0.1864,0.1925,0.1927,0.1862,0.1867,0.1867,0.1867,0.1866,0.1866,0.1866,0.2009,0.1994,0.1984,0.1954,0.1929,0.1898,0.1862,0.1855,0.1866,0.1875,0.1876,0.1822,0.192,0.1942,0.1865,0.1865,0.1865,0.1866,0.1866,0.2005,0.2013,0.1992,0.1977,0.1913,0.1875,0.186,0.1853,0.1853,0.1863,0.179,0.1886,0.1926,0.193,0.1953,0.1883,0.1883,0.1883,0.1883,0.2014,0.2013,0.1992,0.1958,0.1906,0.1858,0.1816,0.1805,0.1788,0.1768,0.1746,0.175,0.1753,0.1782,0.1789,0.1809,0.1705,0.1704,0.1704,0.2025,0.2015,0.2005,0.1962,0.1893,0.1838,0.1776,0.1726,0.1715,0.1685,0.1614,0.1622,0.1615,0.1627,0.1668,0.1685,0.1718,0,0]},{"header":{"parameterUnit":"m.s-1","parameterCategory":2,"la1":30.2992,"la2":30.254,"lo1":-89.0895,"lo2":-89.0443,"dy":0.0025,"dx":0.0025,"nx":19,"ny":19,"refTime":"2026-04-23T21:00:00:Z","depth":"0","parameterNumber":3,"parameterNumberName":"V-component_of_CURRENTS"},"data":[0,0,0,-0.121,-0.1213,-0.1348,-0.1349,-0.1407,-0.1407,0,0,0,0,0,0,0,0,0,0,0,-0.1152,-0.1153,-0.121,-0.1213,-0.1348,-0.1349,-0.1407,-0.1407,0,0,0,0,0,0,0,0,0,0,0,-0.1152,-0.1153,-0.1153,-0.1213,-0.1348,-0.1349,-0.1407,-0.1335,0,0,0,0,0,0,0,0,0,0,-0.1219,-0.1151,-0.1153,-0.1153,-0.1214,-0.1348,-0.1349,-0.1333,-0.134,-0.131,0,-0.1322,0,-0.1364,-0.1407,-0.1407,0,0,0,-0.1222,-0.1145,-0.121,-0.1153,-0.1215,-0.1347,-0.129,-0.1338,-0.1345,-0.1318,-0.1323,-0.1326,-0.1364,-0.1407,-0.1407,-0.1293,-0.1292,0,0,-0.1215,-0.1151,-0.1205,-0.1214,-0.1236,-0.1285,-0.1294,-0.1344,-0.1324,-0.1323,-0.1329,-0.1365,-0.1407,-0.1407,-0.1294,-0.1293,0,0,0,-0.1187,-0.1145,-0.1211,-0.121,-0.1243,-0.1289,-0.1299,-0.1322,-0.1352,-0.133,-0.1366,-0.1407,-0.1408,-0.1296,-0.1294,-0.1175,0,0,0,-0.1183,-0.113,-0.1207,-0.1167,-0.1243,-0.1293,-0.1275,-0.1349,-0.1356,-0.1366,-0.1407,-0.1408,-0.1297,-0.1294,-0.1182,-0.1145,0,0,0,-0.1149,-0.1125,-0.1144,-0.1164,-0.1224,-0.1294,-0.1327,-0.1352,-0.1377,-0.1407,-0.1408,-0.1298,-0.1295,-0.1187,-0.1154,-0.1106,0,0,0,-0.1078,-0.1079,-0.1141,-0.1135,-0.1222,-0.125,-0.1328,-0.1343,-0.1359,-0.1407,-0.1297,-0.1294,-0.1189,-0.116,-0.1111,-0.1062,-0.1034,0,0,-0.1045,-0.1072,-0.107,-0.1131,-0.1132,-0.1233,-0.1188,-0.1251,-0.1298,-0.1278,-0.1277,-0.118,-0.1155,-0.1107,-0.0883,-0.0861,0,0,0,-0.1038,-0.1036,-0.1042,-0.1059,-0.1101,-0.1096,-0.1166,-0.1172,-0.1163,-0.1295,-0.1149,-0.1137,-0.1112,-0.1091,-0.1072,-0.0913,-0.1279,-0.128,-0.128,-0.0936,-0.0972,-0.0947,-0.0977,-0.0976,-0.0997,-0.0982,-0.0996,-0.1058,-0.1014,-0.1018,-0.087,-0.0843,-0.083,-0.0663,-0.0984,-0.0983,-0.0983,-0.0983,-0.0884,-0.0862,-0.0881,-0.0876,-0.0865,-0.0834,-0.0814,-0.0833,-0.0789,-0.0861,-0.0842,-0.0938,-0.0802,-0.0632,-0.0974,-0.0976,-0.0977,-0.0978,-0.0978,-0.0808,-0.0796,-0.0812,-0.0799,-0.0755,-0.0751,-0.0696,-0.0693,-0.0696,-0.0657,-0.0682,-0.0684,-0.056,-0.0662,-0.0662,-0.0661,-0.0661,-0.066,-0.066,-0.0718,-0.0731,-0.072,-0.0717,-0.0705,-0.0673,-0.0634,-0.0607,-0.0565,-0.0551,-0.0552,-0.0462,-0.0774,-0.0816,-0.0654,-0.0655,-0.0656,-0.0656,-0.0657,-0.0611,-0.0644,-0.0632,-0.0633,-0.0618,-0.0566,-0.0556,-0.0469,-0.0438,-0.0392,-0.0221,-0.0498,-0.0543,-0.0558,-0.0595,-0.0385,-0.0385,-0.0385,-0.0385,-0.0543,-0.0557,-0.0561,-0.0565,-0.0544,-0.0518,-0.0393,-0.0295,-0.0133,-0.0016,-0.0015,-0.0033,-0.0052,-0.0071,-0.0097,-0.0126,0.0199,0.02,0.0201,-0.0485,-0.0506,-0.0495,-0.0527,-0.0516,-0.0457,-0.0303,-0.0092,0.0145,0.024,0.0213,0.0188,0.017,0.0127,0.0093,0.0043,-0.0009,0,0]}],[{"header":{"parameterUnit":"m.s-1","parameterCategory":2,"la1":30.2992,"la2":30.254,"lo1":-89.0895,"lo2":-89.0443,"dy":0.0025,"dx":0.0025,"nx":19,"ny":19,"refTime":"2026-04-23T21:00:00:Z","depth":"2","parameterNumber":2,"parameterNumberName":"U-component_of_CURRENTS"},"data":[0,0,0,0.1049,0.1049,0.1031,0.1031,0.1035,0.1036,0,0,0,0,0,0,0,0,0,0,0,0.1064,0.1065,0.1049,0.1049,0.1031,0.1031,0.1035,0.1036,0,0,0,0,0,0,0,0,0,0,0,0.1064,0.1065,0.1065,0.1049,0.1031,0.1031,0.1035,0.1039,0,0,0,0,0,0,0,0,0,0,0.1052,0.1069,0.1064,0.1065,0.1049,0.1031,0.1031,0.1039,0.1039,0.1056,0,0.1069,0,0.1055,0.1038,0.1038,0,0,0,0.1037,0.1069,0.1063,0.1065,0.1049,0.1031,0.1036,0.1038,0.1039,0.1056,0.1069,0.1068,0.1056,0.1038,0.1038,0.1108,0.1108,0,0,0.1038,0.1058,0.1063,0.1064,0.1066,0.1036,0.1035,0.1038,0.105,0.1069,0.1068,0.1056,0.1038,0.1038,0.1107,0.1108,0,0,0,0.1049,0.1059,0.1052,0.1064,0.1061,0.1036,0.1035,0.1049,0.1047,0.1068,0.1056,0.1038,0.1039,0.1107,0.1108,0.1137,0,0,0,0.1049,0.1066,0.1053,0.1064,0.1061,0.1052,0.1046,0.1047,0.1046,0.1056,0.1038,0.1039,0.1106,0.1107,0.1134,0.1134,0,0,0,0.1061,0.1067,0.1071,0.1066,0.1062,0.1051,0.1048,0.1046,0.104,0.1038,0.1039,0.1106,0.1107,0.1133,0.1131,0.1144,0,0,0,0.1072,0.1084,0.1073,0.1084,0.1063,0.1061,0.1048,0.1055,0.1058,0.1039,0.1106,0.1108,0.1132,0.113,0.1143,0.1146,0.1153,0,0,0.1087,0.1087,0.109,0.1079,0.1083,0.1062,0.1076,0.108,0.1083,0.1104,0.1105,0.1135,0.1131,0.1144,0.1219,0.1223,0,0,0,0.1093,0.1102,0.1101,0.1104,0.1096,0.1103,0.1098,0.1106,0.1134,0.1093,0.1153,0.1149,0.1156,0.1156,0.116,0.1114,0.1113,0.1113,0.1113,0.1138,0.1124,0.1137,0.1129,0.1135,0.1138,0.115,0.1167,0.1161,0.1191,0.1187,0.1233,0.1235,0.1238,0.1209,0.121,0.121,0.121,0.121,0.1169,0.1183,0.1171,0.1179,0.1182,0.1196,0.121,0.1216,0.1241,0.1231,0.1237,0.1204,0.1244,0.1212,0.1212,0.1212,0.1211,0.1211,0.1211,0.1217,0.1221,0.122,0.1229,0.1238,0.1233,0.1244,0.1252,0.1267,0.1279,0.127,0.127,0.1231,0.1282,0.1282,0.1282,0.1282,0.1282,0.1282,0.1271,0.1266,0.1282,0.1279,0.1273,0.1267,0.1263,0.1268,0.1286,0.1297,0.1297,0.1257,0.1255,0.1235,0.1284,0.1283,0.1283,0.1283,0.1283,0.1337,0.1329,0.134,0.1338,0.1306,0.1233,0.1257,0.1261,0.1293,0.1304,0.1309,0.1308,0.1293,0.129,0.1272,0.1326,0.1326,0.1326,0.1326,0.1381,0.1379,0.1375,0.1354,0.1315,0.1219,0.1126,0.104,0.1097,0.1072,0.1082,0.1051,0.1058,0.1026,0.1029,0.1003,0.0988,0.0987,0.0985,0.1421,0.1404,0.1402,0.1362,0.1298,0.1165,0.0972,0.0676,0.0645,0.0959,0.0892,0.1329,0.1313,0.1311,0.1286,0.1281,0.125,0,0]},{"header":{"parameterUnit":"m.s-1","parameterCategory":2,"la1":30.2992,"la2":30.254,"lo1":-89.0895,"lo2":-89.0443,"dy":0.0025,"dx":0.0025,"nx":19,"ny":19,"refTime":"2026-04-23T21:00:00:Z","depth":"2","parameterNumber":3,"parameterNumberName":"V-component_of_CURRENTS"},"data":[0,0,0,-0.0004,-0.0005,-0.0049,-0.0049,-0.0022,-0.0022,0,0,0,0,0,0,0,0,0,0,0,-0.0002,-0.0002,-0.0004,-0.0005,-0.0049,-0.0049,-0.0023,-0.0022,0,0,0,0,0,0,0,0,0,0,0,-0.0001,-0.0002,-0.0003,-0.0005,-0.0049,-0.0049,-0.0023,-0.0009,0,0,0,0,0,0,0,0,0,0,0.0023,0.0004,-0.0002,-0.0003,-0.0005,-0.0049,-0.0049,-0.001,-0.001,0.002,0,-0.0003,0,-0.0006,-0.0019,-0.0018,0,0,0,-0.0002,0.0004,0.0002,-0.0003,-0.0006,-0.0049,-0.0028,-0.001,-0.0011,0.002,-0.0003,-0.0002,-0.0005,-0.0018,-0.0018,0.0005,0.0005,0,0,0.0,-0.0012,0.0002,0.0001,-0.0037,-0.0027,-0.003,-0.0012,-0.0024,-0.0003,-0.0002,-0.0005,-0.0018,-0.0018,0.0005,0.0005,0,0,0,0.0006,-0.0011,-0.0015,0.0001,-0.0011,-0.0028,-0.0031,-0.0025,-0.0025,-0.0002,-0.0004,-0.0018,-0.0017,0.0005,0.0005,-0.0025,0,0,0,0.0007,-0.0008,-0.0015,-0.0023,-0.0012,-0.0032,-0.0046,-0.0027,-0.0025,-0.0005,-0.0018,-0.0017,0.0005,0.0005,-0.0024,-0.0003,0,0,0,0.0004,-0.0008,-0.0017,-0.0023,-0.0041,-0.0032,-0.0032,-0.0027,-0.0026,-0.0018,-0.0016,0.0005,0.0005,-0.0023,-0.0002,0.0027,0,0,0,0.0,-0.001,-0.0019,-0.003,-0.0041,-0.0036,-0.0032,-0.0046,-0.0046,-0.0017,0.0005,0.0005,-0.0022,-0.0002,0.0027,0.0214,0.023,0,0,-0.0003,-0.0011,-0.0013,-0.002,-0.0013,-0.0028,-0.0022,-0.0035,-0.0035,0.0006,0.0006,-0.0024,-0.0002,0.0027,0.0196,0.0213,0,0,0,-0.0006,-0.0009,-0.0008,-0.0015,-0.0014,-0.0014,-0.0029,-0.0029,-0.004,-0.0037,-0.0022,-0.0006,0.0013,0.0125,0.0138,0.0003,0.0003,0.0003,0.0003,-0.0028,-0.0015,-0.0011,0.0,-0.0003,-0.001,-0.0006,-0.0009,-0.0028,-0.005,-0.0031,-0.0025,0.0093,0.0105,-0.0049,-0.0049,-0.0049,-0.0049,-0.0049,-0.0013,-0.0,-0.0004,-0.0,-0.0003,-0.0012,0.0008,-0.0016,-0.0005,-0.0037,-0.0019,0.0088,0.0118,-0.0051,-0.0051,-0.0051,-0.005,-0.005,-0.005,-0.0009,0.0005,-0.0015,-0.0014,-0.0027,-0.0032,-0.0011,-0.0018,-0.0015,-0.0008,0.012,0.0123,-0.0014,-0.0023,-0.0023,-0.0023,-0.0023,-0.0023,-0.0022,0.0007,0.0003,-0.0015,-0.0024,-0.0045,-0.0051,-0.0039,-0.0007,0.0087,0.0137,0.0139,-0.0015,-0.0016,-0.0011,-0.0019,-0.002,-0.002,-0.0021,-0.0021,0.0055,0.0018,0.0009,-0.0017,-0.0037,0.0043,0.0045,0.0202,0.0212,0.0315,0.0245,0.0238,0.0281,0.0273,0.0286,0.0355,0.0355,0.0355,0.0355,0.0075,0.0063,0.0039,0.0016,0.0023,0.0091,0.0294,0.0484,0.0567,0.0654,0.064,0.0665,0.0644,0.0708,0.069,0.0711,0.089,0.0891,0.0892,0.0114,0.0094,0.0089,0.0048,0.0054,0.0196,0.0479,0.0726,0.0882,0.0908,0.0683,0.0401,0.0401,0.0382,0.0449,0.0432,0.0453,0,0]}],[{"header":{"parameterUnit":"m.s-1","parameterCategory":2,"la1":30.2992,"la2":30.254,"lo1":-89.0895,"lo2":-89.0443,"dy":0.0025,"dx":0.0025,"nx":19,"ny":19,"refTime":"2026-04-23T21:00:00:Z","depth":"4","parameterNumber":2,"parameterNumberName":"U-component_of_CURRENTS"},"data":[0,0,0,-0.044,-0.0439,-0.0365,-0.0365,-0.0268,-0.0268,0,0,0,0,0,0,0,0,0,0,0,-0.0476,-0.0476,-0.0441,-0.0439,-0.0365,-0.0364,-0.0268,-0.0268,0,0,0,0,0,0,0,0,0,0,0,-0.0476,-0.0476,-0.0476,-0.0439,-0.0365,-0.0364,-0.0269,-0.0321,0,0,0,0,0,0,0,0,0,0,-0.0392,-0.0427,-0.0476,-0.0476,-0.0439,-0.0365,-0.0364,-0.0323,-0.0318,-0.0307,0,-0.0314,0,-0.0292,-0.0263,-0.0263,0,0,0,-0.0423,-0.0432,-0.0417,-0.0476,-0.0438,-0.0365,-0.0394,-0.032,-0.0314,-0.03,-0.0313,-0.0309,-0.029,-0.0262,-0.0262,-0.0116,-0.0115,0,0,-0.0427,-0.0451,-0.0422,-0.0414,-0.0443,-0.0396,-0.0392,-0.0316,-0.0317,-0.0312,-0.0306,-0.0289,-0.0262,-0.0261,-0.0117,-0.0116,0,0,0,-0.045,-0.0454,-0.044,-0.0418,-0.0407,-0.0395,-0.0389,-0.032,-0.0318,-0.0305,-0.0288,-0.0261,-0.026,-0.0118,-0.0117,-0.0099,0,0,0,-0.0451,-0.0468,-0.0443,-0.0454,-0.0409,-0.0362,-0.0395,-0.0323,-0.0314,-0.0288,-0.0261,-0.026,-0.0119,-0.0117,-0.0102,-0.0137,0,0,0,-0.0475,-0.047,-0.047,-0.0456,-0.043,-0.0362,-0.0354,-0.032,-0.0304,-0.0262,-0.026,-0.012,-0.0118,-0.0104,-0.0139,-0.0142,0,0,0,-0.0488,-0.0476,-0.0471,-0.0446,-0.0432,-0.0359,-0.0354,-0.0285,-0.0244,-0.0261,-0.0119,-0.0117,-0.0105,-0.0141,-0.0143,-0.0202,0,0,0,-0.0472,-0.0475,-0.0455,-0.0449,-0.0382,-0.0366,-0.0297,-0.0244,-0.0201,-0.0144,-0.0141,-0.0101,-0.0139,-0.0142,-0.0053,0,0,0,0,-0.0448,-0.0431,-0.0413,-0.0375,-0.0334,-0.0293,-0.0239,-0.0206,-0.011,-0.017,-0.0054,-0.008,-0.0082,-0.0116,-0.0104,-0.0105,-0.0105,-0.0105,-0.0106,-0.0418,-0.0392,-0.0347,-0.0309,-0.0277,-0.0222,-0.0191,-0.0128,-0.0086,-0.0017,-0.0029,0.0025,-0.0002,0.0035,0.0036,0.0036,0.0036,0.0036,0.0036,-0.0357,-0.0329,-0.03,-0.0247,-0.022,-0.0164,-0.0118,-0.0083,-0.0016,0.003,0.0028,-0.0049,0.0039,0.0038,0.0038,0.0038,0.0037,0.0037,0.0037,-0.0327,-0.0315,-0.028,-0.0216,-0.0164,-0.0127,-0.0118,-0.0062,-0.0004,0.0004,-0.001,0.0026,-0.002,0.0037,0.0037,0.0037,0.0037,0.0037,0.0037,-0.0319,-0.0289,-0.0258,-0.0188,-0.0156,-0.012,-0.0091,-0.01,-0.0048,-0.002,0.0024,0.0024,0.0024,-0.0019,0.0035,0.0035,0.0036,0.0036,0.0036,-0.029,-0.0292,-0.0256,-0.0226,-0.016,-0.0149,-0.0123,-0.0139,-0.0134,-0.0131,-0.004,-0.0035,-0.0064,-0.0062,-0.011,-0.0082,-0.0083,-0.0083,0,-0.0286,-0.0279,-0.0266,-0.0247,-0.022,-0.0178,-0.0203,-0.0209,-0.017,-0.0142,-0.0149,-0.0046,-0.0042,-0.0075,-0.0075,-0.0131,0,0,0,-0.0267,-0.0279,-0.0277,-0.0268,-0.0246,-0.0227,-0.0214,-0.0219,-0.0132,-0.0196,-0.0099,-0.0095,-0.0097,0.003,-0.0005,-0.0005,-0.0077,0,0]},{"header":{"parameterUnit":"m.s-1","parameterCategory":2,"la1":30.2992,"la2":30.254,"lo1":-89.0895,"lo2":-89.0443,"dy":0.0025,"dx":0.0025,"nx":19,"ny":19,"refTime":"2026-04-23T21:00:00:Z","depth":"4","parameterNumber":3,"parameterNumberName":"V-component_of_CURRENTS"},"data":[0,0,0,0.0723,0.0725,0.0805,0.0806,0.0918,0.0919,0,0,0,0,0,0,0,0,0,0,0,0.0705,0.0706,0.0723,0.0725,0.0805,0.0806,0.0918,0.0919,0,0,0,0,0,0,0,0,0,0,0,0.0705,0.0706,0.0706,0.0725,0.0805,0.0806,0.0917,0.0856,0,0,0,0,0,0,0,0,0,0,0.0778,0.0742,0.0705,0.0706,0.0726,0.0805,0.0806,0.0853,0.086,0.0881,0,0.0898,0,0.0904,0.0926,0.0926,0,0,0,0.0733,0.0736,0.077,0.0706,0.0726,0.0805,0.0771,0.0857,0.0865,0.089,0.09,0.0903,0.0906,0.0926,0.0927,0.1064,0.1065,0,0,0.0728,0.0708,0.0765,0.0775,0.0753,0.0769,0.0774,0.0862,0.0865,0.09,0.0906,0.0908,0.0927,0.0928,0.1064,0.1064,0,0,0,0.071,0.0705,0.0737,0.0771,0.0781,0.0771,0.0777,0.0861,0.0876,0.0907,0.0909,0.0928,0.0929,0.1063,0.1064,0.1063,0,0,0,0.0708,0.0694,0.0735,0.0722,0.0779,0.0816,0.0774,0.087,0.088,0.0909,0.0928,0.093,0.1062,0.1063,0.1061,0.1035,0,0,0,0.07,0.0692,0.0707,0.0721,0.0752,0.0815,0.0834,0.0872,0.088,0.0926,0.093,0.1061,0.1063,0.1059,0.1034,0.1053,0,0,0,0.067,0.0684,0.0706,0.0719,0.0752,0.082,0.0834,0.092,0.0969,0.0928,0.1062,0.1064,0.1059,0.1033,0.1052,0.0922,0,0,0,0.0668,0.0683,0.069,0.0712,0.0745,0.0809,0.0852,0.0942,0.0996,0.1033,0.1036,0.1061,0.1034,0.1053,0.1026,0,0,0,0,0.0676,0.0687,0.0688,0.0728,0.0781,0.0821,0.0923,0.0966,0.1063,0.1029,0.1097,0.108,0.1092,0.1016,0.1072,0.1072,0.1072,0.1072,0.1071,0.0664,0.0697,0.0704,0.0747,0.0794,0.0879,0.0909,0.1001,0.1067,0.1138,0.1107,0.1154,0.1078,0.1152,0.1152,0.1152,0.1152,0.1152,0.1152,0.0668,0.0665,0.0722,0.0763,0.0821,0.091,0.0951,0.1013,0.1088,0.1142,0.1155,0.1054,0.1153,0.1153,0.1153,0.1153,0.1153,0.1153,0.1153,0.0643,0.064,0.0715,0.0807,0.0882,0.0943,0.0961,0.1026,0.1097,0.1106,0.108,0.1157,0.1124,0.1162,0.1162,0.1162,0.1162,0.1162,0.1162,0.0596,0.0646,0.0732,0.0828,0.0895,0.0962,0.1023,0.1022,0.1079,0.1056,0.1145,0.1157,0.1157,0.1127,0.1162,0.1162,0.1162,0.1162,0.1162,0.0557,0.0628,0.0713,0.0798,0.0892,0.0914,0.0983,0.0963,0.0976,0.0944,0.1019,0.1026,0.101,0.1013,0.0976,0.0968,0.0967,0.0965,0,0.0543,0.0575,0.0697,0.0754,0.079,0.0835,0.0819,0.0833,0.0869,0.0867,0.0959,0.1045,0.1049,0.1032,0.1032,0.0989,0,0,0,0.0555,0.0578,0.0645,0.0695,0.0723,0.071,0.0799,0.0788,0.0886,0.082,0.0926,0.0936,0.102,0.1162,0.1154,0.1154,0.1104,0,0]}]]